MAVEN IUVS Accelerometer derived data. The  geometry is computed in planetocentric coordinates for the times of periapse,,,,,,,,,,,,,,
Orbit No.,Time of perijapsei, URN, Start Time, Stop Time,Longitude (deg),Latitude (deg),Longitude (deg),Latitude (deg),Observer Distance (km),Phase Angle (deg),Orbit No., Ls, Martian Year, Product Size
6974,2018-05-01T02:52:11Z,urn:nasa:pds:maven_acc:profile:pro_acc_p06974,2018-05-01T02:47:11.00Z,2018-05-01T02:57:11.00Z,127.202,4.972,123.190,-47.512,139.678,52.998,6974,167.88,34,0.047
6976,2018-05-01T11:36:34Z,urn:nasa:pds:maven_acc:profile:pro_acc_p06976,2018-05-01T11:31:34.00Z,2018-05-01T11:41:34.00Z,-0.397,4.890,-4.997,-47.235,140.447,52.677,6976,168.21,34,0.047
6977,2018-05-01T15:58:44Z,urn:nasa:pds:maven_acc:profile:pro_acc_p06977,2018-05-01T15:53:44.00Z,2018-05-01T16:03:44.00Z,-64.190,4.849,-69.129,-47.106,139.680,52.531,6977,168.31,34,0.047
6980,2018-05-02T05:05:19Z,urn:nasa:pds:maven_acc:profile:pro_acc_p06980,2018-05-02T05:00:19.00Z,2018-05-02T05:10:19.00Z,104.410,4.726,98.582,-46.688,157.944,52.064,6980,168.59,34,0.047
6982,2018-05-02T13:50:36Z,urn:nasa:pds:maven_acc:profile:pro_acc_p06982,2018-05-02T13:45:36.00Z,2018-05-02T13:55:36.00Z,-23.408,4.644,-29.828,-46.417,158.996,51.767,6982,168.75,34,0.047
6984,2018-05-02T22:35:50Z,urn:nasa:pds:maven_acc:profile:pro_acc_p06984,2018-05-02T22:30:50.00Z,2018-05-02T22:40:50.00Z,-151.213,4.562,-158.202,-46.181,158.993,51.510,6984,168.97,34,0.047
6986,2018-05-03T07:21:02Z,urn:nasa:pds:maven_acc:profile:pro_acc_p06986,2018-05-03T07:16:02.00Z,2018-05-03T07:26:02.00Z,80.990,4.479,73.379,-45.885,157.921,51.204,6986,169.13,34,0.047
6988,2018-05-03T16:06:16Z,urn:nasa:pds:maven_acc:profile:pro_acc_p06988,2018-05-03T16:01:16.00Z,2018-05-03T16:11:16.00Z,-46.815,4.397,-55.009,-45.651,158.472,50.962,6988,169.4,34,0.047
6990,2018-05-04T00:51:27Z,urn:nasa:pds:maven_acc:profile:pro_acc_p06990,2018-05-04T00:46:27.00Z,2018-05-04T00:56:27.00Z,-174.608,4.314,176.637,-45.381,158.978,50.688,6990,169.51,34,0.047
6992,2018-05-04T09:36:36Z,urn:nasa:pds:maven_acc:profile:pro_acc_p06992,2018-05-04T09:31:36.00Z,2018-05-04T09:41:36.00Z,57.607,4.231,48.255,-45.094,158.354,50.409,6992,169.84,34,0.047
6994,2018-05-04T18:21:47Z,urn:nasa:pds:maven_acc:profile:pro_acc_p06994,2018-05-04T18:16:47.00Z,2018-05-04T18:26:47.00Z,-70.185,4.149,-80.127,-44.864,158.039,50.192,6994,169.95,34,0.047
6996,2018-05-05T03:06:54Z,urn:nasa:pds:maven_acc:profile:pro_acc_p06996,2018-05-05T03:01:54.00Z,2018-05-05T03:11:54.00Z,162.038,4.066,151.514,-44.571,158.813,49.920,6996,170.22,34,0.047
6998,2018-05-05T11:51:58Z,urn:nasa:pds:maven_acc:profile:pro_acc_p06998,2018-05-05T11:46:58.00Z,2018-05-05T11:56:58.00Z,34.274,3.983,23.201,-44.332,158.917,49.700,6998,170.39,34,0.047
7000,2018-05-05T20:37:02Z,urn:nasa:pds:maven_acc:profile:pro_acc_p07000,2018-05-05T20:32:02.00Z,2018-05-05T20:42:02.00Z,-93.490,3.900,-105.156,-44.074,158.182,49.477,7000,170.5,34,0.047
7001,2018-05-06T00:59:34Z,urn:nasa:pds:maven_acc:profile:pro_acc_p07001,2018-05-06T00:54:34.00Z,2018-05-06T01:04:34.00Z,-157.372,3.858,-169.342,-43.910,159.000,49.337,7001,170.61,34,0.047
7002,2018-05-06T05:22:06Z,urn:nasa:pds:maven_acc:profile:pro_acc_p07002,2018-05-06T05:17:06.00Z,2018-05-06T05:27:06.00Z,138.746,3.817,126.470,-43.760,158.227,49.212,7002,170.77,34,0.047
7003,2018-05-06T09:44:35Z,urn:nasa:pds:maven_acc:profile:pro_acc_p07003,2018-05-06T09:39:35.00Z,2018-05-06T09:49:35.00Z,74.876,3.775,62.320,-43.640,158.067,49.113,7003,170.93,34,0.047
7004,2018-05-06T14:07:06Z,urn:nasa:pds:maven_acc:profile:pro_acc_p07004,2018-05-06T14:02:06.00Z,2018-05-06T14:12:06.00Z,10.998,3.733,-1.844,-43.482,158.885,48.980,7004,170.93,34,0.047
7005,2018-05-06T18:29:38Z,urn:nasa:pds:maven_acc:profile:pro_acc_p07005,2018-05-06T18:24:38.00Z,2018-05-06T18:34:38.00Z,-52.884,3.692,-66.018,-43.410,158.296,48.933,7005,171.04,34,0.047
7006,2018-05-06T22:52:05Z,urn:nasa:pds:maven_acc:profile:pro_acc_p07006,2018-05-06T22:47:05.00Z,2018-05-06T22:57:05.00Z,-116.746,3.650,-130.147,-43.256,158.789,48.803,7006,171.15,34,0.047
7007,2018-05-07T03:14:37Z,urn:nasa:pds:maven_acc:profile:pro_acc_p07007,2018-05-07T03:09:37.00Z,2018-05-07T03:19:37.00Z,179.372,3.608,165.675,-43.118,159.036,48.698,7007,171.32,34,0.047
7008,2018-05-07T07:37:06Z,urn:nasa:pds:maven_acc:profile:pro_acc_p07008,2018-05-07T07:32:06.00Z,2018-05-07T07:42:06.00Z,115.503,3.567,101.504,-42.975,158.007,48.591,7008,171.32,34,0.047
7009,2018-05-07T11:59:34Z,urn:nasa:pds:maven_acc:profile:pro_acc_p07009,2018-05-07T11:54:34.00Z,2018-05-07T12:04:34.00Z,51.637,3.525,37.370,-42.843,158.696,48.489,7009,171.48,34,0.047
7010,2018-05-07T16:22:04Z,urn:nasa:pds:maven_acc:profile:pro_acc_p07010,2018-05-07T16:17:04.00Z,2018-05-07T16:27:04.00Z,-12.237,3.483,-26.820,-42.674,159.083,48.365,7010,171.59,34,0.047
7011,2018-05-07T20:44:33Z,urn:nasa:pds:maven_acc:profile:pro_acc_p07011,2018-05-07T20:39:33.00Z,2018-05-07T20:49:33.00Z,-76.106,3.441,-90.943,-42.629,158.110,48.344,7011,171.59,34,0.047
7012,2018-05-08T01:06:59Z,urn:nasa:pds:maven_acc:profile:pro_acc_p07012,2018-05-08T01:01:59.00Z,2018-05-08T01:11:59.00Z,-139.964,3.400,-155.114,-42.419,159.048,48.186,7012,171.7,34,0.047
7013,2018-05-08T05:29:28Z,urn:nasa:pds:maven_acc:profile:pro_acc_p07013,2018-05-08T05:24:28.00Z,2018-05-08T05:34:28.00Z,156.167,3.358,140.722,-42.282,158.635,48.094,7013,171.87,34,0.047
7014,2018-05-08T09:51:54Z,urn:nasa:pds:maven_acc:profile:pro_acc_p07014,2018-05-08T09:46:54.00Z,2018-05-08T09:56:54.00Z,92.309,3.316,76.605,-42.206,158.007,48.050,7014,172.03,34,0.047
7015,2018-05-08T14:14:20Z,urn:nasa:pds:maven_acc:profile:pro_acc_p07015,2018-05-08T14:09:20.00Z,2018-05-08T14:19:20.00Z,28.452,3.274,12.464,-42.033,158.974,47.926,7015,172.03,34,0.047
7016,2018-05-08T18:36:48Z,urn:nasa:pds:maven_acc:profile:pro_acc_p07016,2018-05-08T18:31:48.00Z,2018-05-08T18:41:48.00Z,-35.414,3.232,-51.710,-41.916,158.713,47.861,7016,172.14,34,0.047
7017,2018-05-08T22:59:12Z,urn:nasa:pds:maven_acc:profile:pro_acc_p07017,2018-05-08T22:54:12.00Z,2018-05-08T23:04:12.00Z,-99.263,3.190,-115.811,-41.797,158.381,47.782,7017,172.25,34,0.047
7018,2018-05-09T03:21:40Z,urn:nasa:pds:maven_acc:profile:pro_acc_p07018,2018-05-09T03:16:40.00Z,2018-05-09T03:26:40.00Z,-163.129,3.148,-179.978,-41.636,159.004,47.679,7018,172.42,34,0.047
7019,2018-05-09T07:44:07Z,urn:nasa:pds:maven_acc:profile:pro_acc_p07019,2018-05-09T07:39:07.00Z,2018-05-09T07:49:07.00Z,133.010,3.106,115.862,-41.488,158.077,47.591,7019,172.42,34,0.047
7020,2018-05-09T12:06:32Z,urn:nasa:pds:maven_acc:profile:pro_acc_p07020,2018-05-09T12:01:32.00Z,2018-05-09T12:11:32.00Z,69.157,3.064,51.749,-41.387,158.278,47.535,7020,172.58,34,0.047
7021,2018-05-09T16:28:59Z,urn:nasa:pds:maven_acc:profile:pro_acc_p07021,2018-05-09T16:23:59.00Z,2018-05-09T16:33:59.00Z,5.295,3.023,-12.403,-41.225,158.974,47.436,7021,172.69,34,0.047
7022,2018-05-09T20:51:26Z,urn:nasa:pds:maven_acc:profile:pro_acc_p07022,2018-05-09T20:46:26.00Z,2018-05-09T20:56:26.00Z,-58.566,2.981,-76.553,-41.142,158.194,47.409,7022,172.69,34,0.047
7023,2018-05-10T01:13:49Z,urn:nasa:pds:maven_acc:profile:pro_acc_p07023,2018-05-10T01:08:49.00Z,2018-05-10T01:18:49.00Z,-122.411,2.938,-140.675,-40.970,158.987,47.301,7023,172.8,34,0.047
7024,2018-05-10T05:36:16Z,urn:nasa:pds:maven_acc:profile:pro_acc_p07024,2018-05-10T05:31:16.00Z,2018-05-10T05:41:16.00Z,173.728,2.896,155.156,-40.800,158.961,47.206,7024,172.97,34,0.047
7025,2018-05-10T09:58:41Z,urn:nasa:pds:maven_acc:profile:pro_acc_p07025,2018-05-10T09:53:41.00Z,2018-05-10T10:03:41.00Z,109.875,2.854,91.036,-40.711,158.048,47.173,7025,173.13,34,0.047
7026,2018-05-10T14:21:05Z,urn:nasa:pds:maven_acc:profile:pro_acc_p07026,2018-05-10T14:16:05.00Z,2018-05-10T14:26:05.00Z,46.026,2.812,26.912,-40.550,158.927,47.081,7026,173.13,34,0.047
7027,2018-05-10T18:43:32Z,urn:nasa:pds:maven_acc:profile:pro_acc_p07027,2018-05-10T18:38:32.00Z,2018-05-10T18:48:32.00Z,-17.836,2.770,-37.249,-40.421,159.096,47.027,7027,173.24,34,0.047
7028,2018-05-10T23:05:56Z,urn:nasa:pds:maven_acc:profile:pro_acc_p07028,2018-05-10T23:00:56.00Z,2018-05-10T23:10:56.00Z,-81.685,2.728,-101.357,-40.328,158.285,46.994,7028,173.36,34,0.047
7029,2018-05-11T03:28:21Z,urn:nasa:pds:maven_acc:profile:pro_acc_p07029,2018-05-11T03:23:21.00Z,2018-05-11T03:33:21.00Z,-145.538,2.686,-165.493,-40.180,159.153,46.922,7029,173.52,34,0.047
7030,2018-05-11T07:50:47Z,urn:nasa:pds:maven_acc:profile:pro_acc_p07030,2018-05-11T07:45:47.00Z,2018-05-11T07:55:47.00Z,150.605,2.644,130.366,-40.056,158.503,46.875,7030,173.52,34,0.047
7031,2018-05-11T12:13:09Z,urn:nasa:pds:maven_acc:profile:pro_acc_p07031,2018-05-11T12:08:09.00Z,2018-05-11T12:18:09.00Z,86.764,2.602,66.232,-39.897,158.137,46.801,7031,173.69,34,0.047
7032,2018-05-11T16:35:34Z,urn:nasa:pds:maven_acc:profile:pro_acc_p07032,2018-05-11T16:30:34.00Z,2018-05-11T16:40:34.00Z,22.911,2.559,2.122,-39.776,159.057,46.750,7032,173.8,34,0.047
7033,2018-05-11T20:57:59Z,urn:nasa:pds:maven_acc:profile:pro_acc_p07033,2018-05-11T20:52:59.00Z,2018-05-11T21:02:59.00Z,-40.942,2.517,-62.054,-39.623,158.623,46.699,7033,173.8,34,0.047
7034,2018-05-12T01:20:21Z,urn:nasa:pds:maven_acc:profile:pro_acc_p07034,2018-05-12T01:15:21.00Z,2018-05-12T01:25:21.00Z,-104.782,2.475,-126.130,-39.520,158.824,46.660,7034,173.91,34,0.047
7056,2018-05-16T01:32:36Z,urn:nasa:pds:maven_acc:profile:pro_acc_p07056,2018-05-16T01:27:36.00Z,2018-05-16T01:37:36.00Z,-69.318,1.541,-96.796,-36.571,158.515,46.140,7056,176.13,34,0.047
7057,2018-05-16T05:54:56Z,urn:nasa:pds:maven_acc:profile:pro_acc_p07057,2018-05-16T05:49:56.00Z,2018-05-16T05:59:56.00Z,-133.151,1.498,-160.898,-36.430,159.411,46.133,7057,176.3,34,0.047
7058,2018-05-16T10:17:17Z,urn:nasa:pds:maven_acc:profile:pro_acc_p07058,2018-05-16T10:12:17.00Z,2018-05-16T10:22:17.00Z,163.013,1.456,134.966,-36.257,158.895,46.120,7058,176.46,34,0.047
7059,2018-05-16T14:39:35Z,urn:nasa:pds:maven_acc:profile:pro_acc_p07059,2018-05-16T14:34:35.00Z,2018-05-16T14:44:35.00Z,99.189,1.413,70.868,-36.126,158.358,46.128,7059,176.46,34,0.047
7060,2018-05-16T19:01:55Z,urn:nasa:pds:maven_acc:profile:pro_acc_p07060,2018-05-16T18:56:55.00Z,2018-05-16T19:06:55.00Z,35.357,1.370,6.781,-35.997,159.336,46.130,7060,176.57,34,0.047
7061,2018-05-16T23:24:16Z,urn:nasa:pds:maven_acc:profile:pro_acc_p07061,2018-05-16T23:19:16.00Z,2018-05-16T23:29:16.00Z,-28.479,1.328,-57.361,-35.858,159.047,46.154,7061,176.69,34,0.047
7062,2018-05-17T03:46:34Z,urn:nasa:pds:maven_acc:profile:pro_acc_p07062,2018-05-17T03:41:34.00Z,2018-05-17T03:51:34.00Z,-92.303,1.285,-121.410,-35.779,158.892,46.181,7062,176.85,34,0.047
7063,2018-05-17T08:08:55Z,urn:nasa:pds:maven_acc:profile:pro_acc_p07063,2018-05-17T08:03:55.00Z,2018-05-17T08:13:55.00Z,-156.139,1.242,174.442,-35.569,159.388,46.161,7063,176.85,34,0.047
7064,2018-05-17T12:31:16Z,urn:nasa:pds:maven_acc:profile:pro_acc_p07064,2018-05-17T12:26:16.00Z,2018-05-17T12:36:16.00Z,140.025,1.199,110.336,-35.458,158.472,46.193,7064,177.02,34,0.047
7065,2018-05-17T16:53:35Z,urn:nasa:pds:maven_acc:profile:pro_acc_p07065,2018-05-17T16:48:35.00Z,2018-05-17T16:58:35.00Z,76.197,1.157,46.263,-35.367,158.784,46.227,7065,177.13,34,0.047
7066,2018-05-17T21:15:55Z,urn:nasa:pds:maven_acc:profile:pro_acc_p07066,2018-05-17T21:10:55.00Z,2018-05-17T21:20:55.00Z,12.366,1.114,-17.875,-35.152,159.450,46.210,7066,177.24,34,0.047
7067,2018-05-18T01:38:16Z,urn:nasa:pds:maven_acc:profile:pro_acc_p07067,2018-05-18T01:33:16.00Z,2018-05-18T01:43:16.00Z,-51.470,1.071,-81.980,-35.085,158.684,46.279,7067,177.24,34,0.047
7068,2018-05-18T06:00:33Z,urn:nasa:pds:maven_acc:profile:pro_acc_p07068,2018-05-18T05:55:33.00Z,2018-05-18T06:05:33.00Z,-115.290,1.028,-146.065,-34.923,159.483,46.281,7068,177.41,34,0.047
7069,2018-05-18T10:22:54Z,urn:nasa:pds:maven_acc:profile:pro_acc_p07069,2018-05-18T10:17:54.00Z,2018-05-18T10:27:54.00Z,-179.126,0.985,149.815,-34.780,159.376,46.310,7069,177.58,34,0.047
7070,2018-05-18T14:45:12Z,urn:nasa:pds:maven_acc:profile:pro_acc_p07070,2018-05-18T14:40:12.00Z,2018-05-18T14:50:12.00Z,117.050,0.943,85.722,-34.662,158.526,46.350,7070,177.58,34,0.047
7071,2018-05-18T19:07:30Z,urn:nasa:pds:maven_acc:profile:pro_acc_p07071,2018-05-18T19:02:30.00Z,2018-05-18T19:12:30.00Z,53.227,0.900,21.639,-34.517,159.440,46.368,7071,177.69,34,0.047
7072,2018-05-18T23:29:50Z,urn:nasa:pds:maven_acc:profile:pro_acc_p07072,2018-05-18T23:24:50.00Z,2018-05-18T23:34:50.00Z,-10.605,0.857,-42.502,-34.346,159.559,46.399,7072,177.8,34,0.047
7073,2018-05-19T03:52:08Z,urn:nasa:pds:maven_acc:profile:pro_acc_p07073,2018-05-19T03:47:08.00Z,2018-05-19T03:57:08.00Z,-74.429,0.814,-106.562,-34.284,158.888,46.464,7073,177.97,34,0.047
7074,2018-05-19T08:14:26Z,urn:nasa:pds:maven_acc:profile:pro_acc_p07074,2018-05-19T08:09:26.00Z,2018-05-19T08:19:26.00Z,-138.252,0.771,-170.687,-34.076,159.650,46.472,7074,177.97,34,0.047
7075,2018-05-19T12:36:46Z,urn:nasa:pds:maven_acc:profile:pro_acc_p07075,2018-05-19T12:31:46.00Z,2018-05-19T12:41:46.00Z,157.916,0.728,125.219,-33.978,158.969,46.532,7075,178.14,34,0.047
7076,2018-05-19T16:59:02Z,urn:nasa:pds:maven_acc:profile:pro_acc_p07076,2018-05-19T16:54:02.00Z,2018-05-19T17:04:02.00Z,94.101,0.685,61.129,-33.830,158.710,46.568,7076,178.25,34,0.047
7077,2018-05-19T21:21:21Z,urn:nasa:pds:maven_acc:profile:pro_acc_p07077,2018-05-19T21:16:21.00Z,2018-05-19T21:26:21.00Z,30.273,0.642,-2.952,-33.711,159.613,46.613,7077,178.36,34,0.047
7078,2018-05-20T01:43:40Z,urn:nasa:pds:maven_acc:profile:pro_acc_p07078,2018-05-20T01:38:40.00Z,2018-05-20T01:48:40.00Z,-33.554,0.599,-67.083,-33.570,159.171,46.677,7078,178.36,34,0.047
7079,2018-05-20T06:05:55Z,urn:nasa:pds:maven_acc:profile:pro_acc_p07079,2018-05-20T06:00:55.00Z,2018-05-20T06:10:55.00Z,-97.366,0.556,-131.145,-33.421,159.482,46.705,7079,178.53,34,0.047
7080,2018-05-20T10:28:15Z,urn:nasa:pds:maven_acc:profile:pro_acc_p07080,2018-05-20T10:23:15.00Z,2018-05-20T10:33:15.00Z,-161.197,0.513,164.732,-33.256,159.744,46.752,7080,178.7,34,0.047
7081,2018-05-20T14:50:33Z,urn:nasa:pds:maven_acc:profile:pro_acc_p07081,2018-05-20T14:45:33.00Z,2018-05-20T14:55:33.00Z,134.979,0.470,100.632,-33.121,158.790,46.810,7081,178.7,34,0.047
7082,2018-05-20T19:12:50Z,urn:nasa:pds:maven_acc:profile:pro_acc_p07082,2018-05-20T19:07:50.00Z,2018-05-20T19:17:50.00Z,71.160,0.427,36.566,-33.011,159.381,46.867,7082,178.81,34,0.047
7083,2018-05-20T23:35:09Z,urn:nasa:pds:maven_acc:profile:pro_acc_p07083,2018-05-20T23:30:09.00Z,2018-05-20T23:40:09.00Z,7.333,0.384,-27.554,-32.841,159.926,46.918,7083,178.93,34,0.047
7084,2018-05-21T03:57:27Z,urn:nasa:pds:maven_acc:profile:pro_acc_p07084,2018-05-21T03:52:27.00Z,2018-05-21T04:02:27.00Z,-56.491,0.341,-91.642,-32.755,159.034,47.006,7084,179.09,34,0.047
7085,2018-05-21T08:19:43Z,urn:nasa:pds:maven_acc:profile:pro_acc_p07085,2018-05-21T08:14:43.00Z,2018-05-21T08:24:43.00Z,-120.306,0.298,-155.719,-32.614,159.902,47.059,7085,179.09,34,0.047
7086,2018-05-21T12:42:01Z,urn:nasa:pds:maven_acc:profile:pro_acc_p07086,2018-05-21T12:37:01.00Z,2018-05-21T12:47:01.00Z,175.871,0.255,140.165,-32.443,159.563,47.118,7086,179.26,34,0.047
7087,2018-05-21T17:04:16Z,urn:nasa:pds:maven_acc:profile:pro_acc_p07087,2018-05-21T16:59:16.00Z,2018-05-21T17:09:16.00Z,112.060,0.212,76.084,-32.311,158.866,47.187,7087,179.37,34,0.047
7088,2018-05-21T21:26:32Z,urn:nasa:pds:maven_acc:profile:pro_acc_p07088,2018-05-21T21:21:32.00Z,2018-05-21T21:31:32.00Z,48.245,0.169,12.010,-32.161,159.848,47.241,7088,179.49,34,0.047
7089,2018-05-22T01:48:50Z,urn:nasa:pds:maven_acc:profile:pro_acc_p07089,2018-05-22T01:43:50.00Z,2018-05-22T01:53:50.00Z,-15.578,0.125,-52.109,-32.025,159.741,47.329,7089,179.49,34,0.047
7090,2018-05-22T06:11:05Z,urn:nasa:pds:maven_acc:profile:pro_acc_p07090,2018-05-22T06:06:05.00Z,2018-05-22T06:16:05.00Z,-79.389,0.082,-116.147,-31.956,159.270,47.413,7090,179.66,34,0.047
7091,2018-05-22T10:33:23Z,urn:nasa:pds:maven_acc:profile:pro_acc_p07091,2018-05-22T10:28:23.00Z,2018-05-22T10:38:23.00Z,-143.212,0.039,179.754,-31.814,159.898,47.489,7091,179.83,34,0.047
7092,2018-05-22T14:55:40Z,urn:nasa:pds:maven_acc:profile:pro_acc_p07092,2018-05-22T14:50:40.00Z,2018-05-22T15:00:40.00Z,152.969,-0.004,115.652,-31.658,159.072,47.564,7092,179.94,34,0.047
7093,2018-05-22T19:17:55Z,urn:nasa:pds:maven_acc:profile:pro_acc_p07093,2018-05-22T19:12:55.00Z,2018-05-22T19:22:55.00Z,89.158,-0.047,51.592,-31.558,159.142,47.649,7093,179.94,34,0.047
7094,2018-05-22T23:40:11Z,urn:nasa:pds:maven_acc:profile:pro_acc_p07094,2018-05-22T23:35:11.00Z,2018-05-22T23:45:11.00Z,25.343,-0.090,-12.519,-31.340,159.908,47.704,7094,180.05,34,0.047
7095,2018-05-23T04:02:29Z,urn:nasa:pds:maven_acc:profile:pro_acc_p07095,2018-05-23T03:57:29.00Z,2018-05-23T04:07:29.00Z,-38.480,-0.134,-76.607,-31.281,159.291,47.828,7095,180.22,34,0.047
7096,2018-05-23T08:24:42Z,urn:nasa:pds:maven_acc:profile:pro_acc_p07096,2018-05-23T08:19:42.00Z,2018-05-23T08:29:42.00Z,-102.283,-0.177,-140.668,-31.118,159.928,47.890,7096,180.22,34,0.047
7097,2018-05-23T12:47:00Z,urn:nasa:pds:maven_acc:profile:pro_acc_p07097,2018-05-23T12:41:60.00Z,2018-05-23T12:51:60.00Z,-166.106,-0.220,155.232,-30.982,159.962,47.985,7097,180.39,34,0.047
7099,2018-05-23T21:36:34Z,urn:nasa:pds:maven_acc:profile:pro_acc_p07099,2018-05-23T21:31:34.00Z,2018-05-23T21:41:34.00Z,65.040,-0.307,25.850,-30.708,159.939,48.157,7099,180.61,34,0.047
7100,2018-05-24T02:03:55Z,urn:nasa:pds:maven_acc:profile:pro_acc_p07100,2018-05-24T01:58:55.00Z,2018-05-24T02:08:55.00Z,-0.012,-0.352,-39.506,-30.524,160.207,48.251,7100,180.61,34,0.047
7101,2018-05-24T06:31:14Z,urn:nasa:pds:maven_acc:profile:pro_acc_p07101,2018-05-24T06:26:14.00Z,2018-05-24T06:36:14.00Z,-65.055,-0.396,-104.801,-30.429,159.484,48.356,7101,180.78,34,0.047
7102,2018-05-24T10:58:34Z,urn:nasa:pds:maven_acc:profile:pro_acc_p07102,2018-05-24T10:53:34.00Z,2018-05-24T11:03:34.00Z,-130.103,-0.440,-170.119,-30.286,160.259,48.451,7102,180.95,34,0.047
7103,2018-05-24T15:25:55Z,urn:nasa:pds:maven_acc:profile:pro_acc_p07103,2018-05-24T15:20:55.00Z,2018-05-24T15:30:55.00Z,164.846,-0.484,124.565,-30.178,159.613,48.561,7103,181.07,34,0.047
7104,2018-05-24T19:53:12Z,urn:nasa:pds:maven_acc:profile:pro_acc_p07104,2018-05-24T19:48:12.00Z,2018-05-24T19:58:12.00Z,99.811,-0.528,59.259,-30.025,159.356,48.657,7104,181.07,34,0.047
7105,2018-05-25T00:20:32Z,urn:nasa:pds:maven_acc:profile:pro_acc_p07105,2018-05-25T00:15:32.00Z,2018-05-25T00:25:32.00Z,34.763,-0.572,-6.044,-29.902,160.259,48.757,7105,181.18,34,0.047
7106,2018-05-25T04:47:52Z,urn:nasa:pds:maven_acc:profile:pro_acc_p07106,2018-05-25T04:42:52.00Z,2018-05-25T04:52:52.00Z,-30.284,-0.616,-71.389,-29.759,159.752,48.881,7106,181.35,34,0.047
7107,2018-05-25T09:15:08Z,urn:nasa:pds:maven_acc:profile:pro_acc_p07107,2018-05-25T09:10:08.00Z,2018-05-25T09:20:08.00Z,-95.315,-0.661,-136.668,-29.616,160.227,48.970,7107,181.52,34,0.047
7108,2018-05-25T13:42:29Z,urn:nasa:pds:maven_acc:profile:pro_acc_p07108,2018-05-25T13:37:29.00Z,2018-05-25T13:47:29.00Z,-160.367,-0.705,157.996,-29.463,160.341,49.083,7108,181.52,34,0.047
7109,2018-05-25T18:09:47Z,urn:nasa:pds:maven_acc:profile:pro_acc_p07109,2018-05-25T18:04:47.00Z,2018-05-25T18:14:47.00Z,134.594,-0.749,92.678,-29.303,159.420,49.192,7109,181.63,34,0.047
7110,2018-05-25T22:37:05Z,urn:nasa:pds:maven_acc:profile:pro_acc_p07110,2018-05-25T22:32:05.00Z,2018-05-25T22:42:05.00Z,69.555,-0.793,27.387,-29.175,160.191,49.297,7110,181.75,34,0.047
7111,2018-05-26T03:04:26Z,urn:nasa:pds:maven_acc:profile:pro_acc_p07111,2018-05-26T02:59:26.00Z,2018-05-26T03:09:26.00Z,4.504,-0.838,-37.937,-29.064,160.541,49.428,7111,181.92,34,0.047
7112,2018-05-26T07:31:44Z,urn:nasa:pds:maven_acc:profile:pro_acc_p07112,2018-05-26T07:26:44.00Z,2018-05-26T07:36:44.00Z,-60.535,-0.882,-103.230,-28.965,159.790,49.551,7112,181.92,34,0.047
7113,2018-05-26T11:59:02Z,urn:nasa:pds:maven_acc:profile:pro_acc_p07113,2018-05-26T11:54:02.00Z,2018-05-26T12:04:02.00Z,-125.574,-0.926,-168.555,-28.776,160.565,49.660,7113,182.09,34,0.047
7114,2018-05-26T16:26:22Z,urn:nasa:pds:maven_acc:profile:pro_acc_p07114,2018-05-26T16:21:22.00Z,2018-05-26T16:31:22.00Z,169.378,-0.970,126.134,-28.667,159.956,49.790,7114,182.2,34,0.047
7115,2018-05-26T20:53:38Z,urn:nasa:pds:maven_acc:profile:pro_acc_p07115,2018-05-26T20:48:38.00Z,2018-05-26T20:58:38.00Z,104.348,-1.015,60.833,-28.513,159.638,49.907,7115,182.2,34,0.047
7116,2018-05-27T01:20:57Z,urn:nasa:pds:maven_acc:profile:pro_acc_p07116,2018-05-27T01:15:57.00Z,2018-05-27T01:25:57.00Z,39.305,-1.059,-4.461,-28.398,160.572,50.028,7116,182.31,34,0.047
7117,2018-05-27T05:48:16Z,urn:nasa:pds:maven_acc:profile:pro_acc_p07117,2018-05-27T05:43:16.00Z,2018-05-27T05:53:16.00Z,-25.738,-1.103,-69.802,-28.248,160.136,50.173,7117,182.48,34,0.047
7118,2018-05-27T10:15:31Z,urn:nasa:pds:maven_acc:profile:pro_acc_p07118,2018-05-27T10:10:31.00Z,2018-05-27T10:20:31.00Z,-90.765,-1.148,-135.076,-28.107,160.525,50.282,7118,182.65,34,0.047
7119,2018-05-27T14:42:51Z,urn:nasa:pds:maven_acc:profile:pro_acc_p07119,2018-05-27T14:37:51.00Z,2018-05-27T14:47:51.00Z,-155.812,-1.192,159.589,-27.939,160.676,50.416,7119,182.65,34,0.047
7120,2018-05-27T19:10:09Z,urn:nasa:pds:maven_acc:profile:pro_acc_p07120,2018-05-27T19:05:09.00Z,2018-05-27T19:15:09.00Z,139.149,-1.236,94.288,-27.820,159.764,50.551,7120,182.77,34,0.047
7121,2018-05-27T23:37:26Z,urn:nasa:pds:maven_acc:profile:pro_acc_p07121,2018-05-27T23:32:26.00Z,2018-05-27T23:42:26.00Z,74.114,-1.281,29.000,-27.687,160.483,50.675,7121,182.88,34,0.047
7122,2018-05-28T04:04:46Z,urn:nasa:pds:maven_acc:profile:pro_acc_p07122,2018-05-28T03:59:46.00Z,2018-05-28T04:09:46.00Z,9.068,-1.325,-36.324,-27.559,160.890,50.821,7122,183.05,34,0.047
7123,2018-05-28T08:32:04Z,urn:nasa:pds:maven_acc:profile:pro_acc_p07123,2018-05-28T08:27:04.00Z,2018-05-28T08:37:04.00Z,-55.971,-1.369,-101.604,-27.499,160.131,50.968,7123,183.05,34,0.047
7124,2018-05-28T12:59:21Z,urn:nasa:pds:maven_acc:profile:pro_acc_p07124,2018-05-28T12:54:21.00Z,2018-05-28T13:04:21.00Z,-121.006,-1.414,-166.919,-27.317,160.917,51.099,7124,183.22,34,0.047
7125,2018-05-28T17:26:40Z,urn:nasa:pds:maven_acc:profile:pro_acc_p07125,2018-05-28T17:21:40.00Z,2018-05-28T17:31:40.00Z,173.951,-1.458,127.771,-27.197,160.346,51.246,7125,183.34,34,0.047
7126,2018-05-28T21:53:55Z,urn:nasa:pds:maven_acc:profile:pro_acc_p07126,2018-05-28T21:48:55.00Z,2018-05-28T21:58:55.00Z,108.925,-1.502,62.475,-27.040,159.970,51.383,7126,183.45,34,0.047
7127,2018-05-29T02:21:13Z,urn:nasa:pds:maven_acc:profile:pro_acc_p07127,2018-05-29T02:16:13.00Z,2018-05-29T02:26:13.00Z,43.886,-1.547,-2.812,-26.931,160.932,51.522,7127,183.45,34,0.047
7128,2018-05-29T06:48:31Z,urn:nasa:pds:maven_acc:profile:pro_acc_p07128,2018-05-29T06:43:31.00Z,2018-05-29T06:53:31.00Z,-21.152,-1.591,-68.150,-26.772,160.562,51.686,7128,183.62,34,0.047
7129,2018-05-29T11:15:45Z,urn:nasa:pds:maven_acc:profile:pro_acc_p07129,2018-05-29T11:10:45.00Z,2018-05-29T11:20:45.00Z,-86.174,-1.636,-133.421,-26.622,160.849,51.813,7129,183.79,34,0.047
7130,2018-05-29T15:43:05Z,urn:nasa:pds:maven_acc:profile:pro_acc_p07130,2018-05-29T15:38:05.00Z,2018-05-29T15:48:05.00Z,-151.221,-1.680,161.261,-26.498,161.064,51.971,7130,183.91,34,0.047
7131,2018-05-29T20:10:22Z,urn:nasa:pds:maven_acc:profile:pro_acc_p07131,2018-05-29T20:05:22.00Z,2018-05-29T20:15:22.00Z,143.745,-1.725,95.955,-26.353,160.144,52.122,7131,183.91,34,0.047
7132,2018-05-30T00:37:38Z,urn:nasa:pds:maven_acc:profile:pro_acc_p07132,2018-05-30T00:32:38.00Z,2018-05-30T00:42:38.00Z,78.714,-1.769,30.669,-26.211,160.805,52.263,7132,184.02,34,0.047
7133,2018-05-30T05:04:57Z,urn:nasa:pds:maven_acc:profile:pro_acc_p07133,2018-05-30T04:59:57.00Z,2018-05-30T05:09:57.00Z,13.672,-1.813,-34.652,-26.072,161.277,52.426,7133,184.19,34,0.047